Tracking 19644 objects as of 25-Apr-2019
HD Live streaming from Space Station
objects crossing your sky now

SL-24 PLAT

Track SL-24 PLAT now!
10-day predictions


NORAD ID: 40049
Int'l Code: 2014-033AR
Perigee: 603.3 km
Apogee: 619.4 km
Inclination: 97.9 °
Period: 96.8 minutes
Semi major axis: 6982 km
RCS: Unknown
Launch date: June 19, 2014
Source: Commonwealth of Independent States (former USSR) (CIS)
Launch site: Orenburg, Russia (OREN)

Note: This is SATELLITE DEBRIS
aabbcc
Your satellite tracking list
Your tracking list is empty




NASA's NSSDC Master Catalog

Two Line Element Set (TLE):
1 40049U 14033AR  19114.34469173  .00000195  00000-0  27393-4 0  9994
2 40049  97.9110  33.3890 0011574 238.0453 121.9639 14.87993566262813
Source of the keplerian elements: Caltech